Home   Weather   Sterling Heights   Past weeks
Flag for USA

Past Weather in Sterling Heights, Michigan, USA — Yesterday and Last 2 Weeks

Now
71 °F

Clear.


Feels Like: 74 °F
Forecast: 90 / 65 °F
Wind: No wind

Location: Detroit City Airport

Current Time: Jul 18, 2019 at 3:01:22 am

Latest Report: Jul 18, 2019 at 1:53 am


Visibility: 10 mi

Pressure: 29.94 "Hg

Humidity: 71%

Dew Point: 61 °F

Location of Sterling HeightsLocation

Past Weather in Sterling Heights — Graph

°F

Sterling Heights Temperature Yesterday

Maximum temperature yesterday: 87 °F (at 4:53 pm)
Minimum temperature yesterday: 73 °F (at 12:53 am)
Average temperature yesterday: 78 °F

High & Low Weather Summary for the Past Weeks

 TemperatureHumidityPressure
High92 °F (Jul 5, 2:55 pm)94% (Jul 16, 5:53 pm)30.14 "Hg (Jul 16, 5:53 pm)
Low59 °F (Jul 8, 5:53 am)34% (Jul 14, 1:53 pm)29.24 "Hg (Jul 11, 6:53 am)
Average76 °F66%29.96 "Hg
* Reported Jul 3 12:53 am — Jul 18 12:53 am, Sterling Heights. Weather by CustomWeather, © 2019

Note: Actual official high and low records may vary slightly from our data, if they occured in-between our weather recording intervals... More about our weather records

Advertising

Sterling Heights Weather History for the Previous 24 Hours

Scroll right to see more
 ConditionsComfort  
Time TempWeatherWind HumidityBarometerVisibility
12:53 am
Thu, Jul 18
72 °FClear.5 mph68%29.94 "Hg10 mi
11:53 pm
Wed, Jul 17
73 °FClear.3 mph64%29.93 "Hg10 mi
10:53 pm73 °FClear.6 mph66%29.93 "Hg10 mi
9:53 pm74 °FClear.7 mph67%29.92 "Hg10 mi
8:53 pm77 °FSunny.8 mph60%29.91 "Hg10 mi
7:53 pm82 °FSunny.8 mph56%29.90 "Hg10 mi
6:53 pm85 °FPartly sunny.9 mph63%29.88 "Hg10 mi
5:53 pm86 °FScattered clouds.9 mph57%29.87 "Hg10 mi
4:53 pm87 °FScattered clouds.7 mph55%29.86 "Hg10 mi
3:53 pm86 °FScattered clouds.8 mph59%29.87 "Hg10 mi
2:53 pm86 °FBroken clouds.7 mph61%29.89 "Hg10 mi
1:53 pm85 °FScattered clouds.7 mph65%29.89 "Hg10 mi
1:29 pm83 °FBroken clouds.7 mph70%29.91 "Hg10 mi
12:53 pm84 °FPartly sunny.3 mph67%29.89 "Hg10 mi
12:38 pm83 °FPartly sunny.No wind70%29.90 "Hg10 mi
11:53 am82 °FMostly cloudy.5 mph72%29.88 "Hg10 mi
10:53 am80 °FPartly sunny.5 mph76%29.88 "Hg10 mi
9:53 am77 °FCloudy.3 mph85%29.89 "Hg10 mi
8:53 am76 °FMostly cloudy.No wind88%29.89 "Hg8 mi
8:04 am75 °FLow clouds.No wind90%29.89 "Hg7 mi
7:53 am75 °FMostly cloudy.No wind90%29.88 "Hg7 mi
7:27 am74 °FMostly cloudy.No wind91%29.89 "Hg7 mi
7:04 am74 °FMostly cloudy.3 mph91%29.89 "Hg7 mi
6:24 am74 °FBroken clouds.No wind91%29.88 "Hg10 mi
5:53 am74 °FOvercast.No wind91%29.87 "Hg10 mi
5:05 am73 °FPartly cloudy.3 mph94%29.89 "Hg10 mi
3:53 am73 °FPassing clouds.No wind94%29.88 "Hg9 mi
Weather by CustomWeather, © 2019

See weather overview